• En Estados Unidos
  • Lista de países
  • Para 7 días
  • Temperatura del agua
  • Mapa Satelital
  • El tiempo en el mapa
  • Informadores
  • user-avatar
    Iniciar sesión

    Tiempo cada hora Mauritius

    Hoy, 20 Enero, Sábado

    Tiempo Temperatura Precipitaciones Viento Presión Humedad
    00:00 +26°C° 0 mm 4 mps 720 mmHg 85%
    01:00 +26°C° 0 mm 3 mps 720 mmHg 85%
    02:00 +26°C° 0 mm 3 mps 720 mmHg 85%
    03:00 +26°C° 0 mm 3 mps 720 mmHg 86%
    04:00 +26°C° 0 mm 3 mps 720 mmHg 86%
    05:00 +26°C° 0 mm 3 mps 720 mmHg 86%
    06:00 +26°C° 0 mm 3 mps 720 mmHg 85%
    07:00 +26°C° 0 mm 3 mps 720 mmHg 85%
    08:00 +26°C° 0,1 mm 2 mps 721 mmHg 82%
    09:00 +27°C° 0,1 mm 2 mps 721 mmHg 79%
    10:00 +28°C° 0 mm 2 mps 721 mmHg 75%
    11:00 +28°C° 0,2 mm 2 mps 721 mmHg 74%
    12:00 +28°C° 0,2 mm 2 mps 721 mmHg 73%
    13:00 +28°C° 0,2 mm 2 mps 721 mmHg 72%
    14:00 +28°C° 0,3 mm 2 mps 720 mmHg 74%
    15:00 +28°C° 0,3 mm 2 mps 720 mmHg 75%
    16:00 +27°C° 0,3 mm 2 mps 720 mmHg 77%
    17:00 +27°C° 0,4 mm 2 mps 720 mmHg 78%
    18:00 +27°C° 0,4 mm 2 mps 720 mmHg 79%
    19:00 +26°C° 0,4 mm 2 mps 720 mmHg 81%
    20:00 +26°C° 0,1 mm 1 mps 720 mmHg 81%
    21:00 +26°C° 0,1 mm 1 mps 721 mmHg 82%
    22:00 +26°C° 0,1 mm 1 mps 721 mmHg 83%
    23:00 +26°C° 0,1 mm 1 mps 721 mmHg 84%

    Mañana, 21 Enero, Domingo

    Tiempo Temperatura Precipitaciones Viento Presión Humedad
    00:00 +26°C° 0,1 mm 1 mps 721 mmHg 84%
    01:00 +26°C° 0,1 mm 1 mps 720 mmHg 85%
    02:00 +25°C° 0 mm 1 mps 720 mmHg 85%
    03:00 +25°C° 0 mm 1 mps 720 mmHg 86%
    04:00 +25°C° 0 mm 1 mps 720 mmHg 86%
    05:00 +25°C° 0,1 mm 1 mps 720 mmHg 86%
    06:00 +25°C° 0,1 mm 1 mps 720 mmHg 85%
    07:00 +26°C° 0,1 mm 1 mps 720 mmHg 85%
    08:00 +26°C° 0 mm 2 mps 720 mmHg 81%
    09:00 +27°C° 0 mm 2 mps 720 mmHg 78%
    10:00 +28°C° 0 mm 2 mps 721 mmHg 75%
    11:00 +28°C° 0,1 mm 2 mps 720 mmHg 74%
    12:00 +28°C° 0,1 mm 2 mps 720 mmHg 73%
    13:00 +29°C° 0,1 mm 2 mps 720 mmHg 72%
    14:00 +28°C° 0,5 mm 2 mps 719 mmHg 73%
    15:00 +28°C° 0,5 mm 2 mps 719 mmHg 74%
    16:00 +28°C° 0,5 mm 2 mps 719 mmHg 75%
    17:00 +27°C° 0,6 mm 2 mps 719 mmHg 77%
    18:00 +27°C° 0,6 mm 2 mps 719 mmHg 79%
    19:00 +27°C° 0,6 mm 2 mps 719 mmHg 81%
    20:00 +27°C° 0,1 mm 2 mps 720 mmHg 82%
    21:00 +26°C° 0,1 mm 2 mps 720 mmHg 83%
    22:00 +26°C° 0,1 mm 2 mps 720 mmHg 84%
    23:00 +26°C° 0 mm 2 mps 720 mmHg 84%

    Pasado mañana, 22 Enero, Lunes

    Tiempo Temperatura Precipitaciones Viento Presión Humedad
    00:00 +26°C° 0 mm 2 mps 719 mmHg 85%
    01:00 +26°C° 0 mm 2 mps 719 mmHg 86%
    02:00 +25°C° 0 mm 2 mps 719 mmHg 86%
    03:00 +25°C° 0 mm 2 mps 718 mmHg 86%
    04:00 +25°C° 0 mm 2 mps 718 mmHg 87%
    05:00 +25°C° 0 mm 2 mps 718 mmHg 86%
    06:00 +25°C° 0 mm 3 mps 719 mmHg 86%
    07:00 +26°C° 0 mm 3 mps 719 mmHg 85%
    08:00 +26°C° 0 mm 3 mps 719 mmHg 82%
    09:00 +27°C° 0 mm 3 mps 720 mmHg 78%
    10:00 +28°C° 0 mm 2 mps 720 mmHg 75%
    11:00 +28°C° 0,4 mm 2 mps 720 mmHg 74%
    12:00 +28°C° 0,4 mm 2 mps 719 mmHg 74%
    13:00 +29°C° 0,4 mm 2 mps 719 mmHg 73%
    14:00 +28°C° 1,2 mm 2 mps 719 mmHg 74%
    15:00 +28°C° 1,2 mm 2 mps 718 mmHg 75%
    16:00 +28°C° 1,2 mm 2 mps 718 mmHg 76%
    17:00 +27°C° 1,4 mm 2 mps 718 mmHg 79%
    18:00 +27°C° 1,4 mm 2 mps 719 mmHg 81%
    19:00 +26°C° 1,4 mm 3 mps 719 mmHg 84%
    20:00 +26°C° 0,6 mm 3 mps 719 mmHg 85%
    21:00 +26°C° 0,6 mm 3 mps 719 mmHg 86%
    22:00 +26°C° 0,6 mm 3 mps 720 mmHg 86%
    23:00 +26°C° 0,1 mm 3 mps 719 mmHg 86%

    23 Enero, Martes

    Tiempo Temperatura Precipitaciones Viento Presión Humedad
    00:00 +26°C° 0,1 mm 3 mps 719 mmHg 87%
    01:00 +26°C° 0,1 mm 3 mps 719 mmHg 87%
    02:00 +25°C° 0,1 mm 3 mps 718 mmHg 87%
    03:00 +25°C° 0,1 mm 3 mps 718 mmHg 87%
    04:00 +25°C° 0,1 mm 3 mps 718 mmHg 87%
    05:00 +25°C° 0 mm 3 mps 718 mmHg 87%
    06:00 +25°C° 0 mm 3 mps 719 mmHg 86%
    07:00 +26°C° 0 mm 3 mps 719 mmHg 86%
    08:00 +26°C° 0 mm 3 mps 719 mmHg 82%
    09:00 +27°C° 0 mm 3 mps 719 mmHg 78%
    10:00 +28°C° 0 mm 3 mps 720 mmHg 75%
    11:00 +28°C° 0,2 mm 3 mps 719 mmHg 75%
    12:00 +28°C° 0,2 mm 2 mps 719 mmHg 75%
    13:00 +28°C° 0,2 mm 2 mps 718 mmHg 74%
    14:00 +28°C° 0,6 mm 2 mps 718 mmHg 76%
    15:00 +28°C° 0,6 mm 2 mps 718 mmHg 77%
    16:00 +27°C° 0,6 mm 2 mps 718 mmHg 78%
    17:00 +27°C° 1 mm 2 mps 718 mmHg 80%
    18:00 +27°C° 1 mm 2 mps 718 mmHg 82%
    19:00 +26°C° 1 mm 2 mps 718 mmHg 85%
    20:00 +26°C° 0,5 mm 2 mps 719 mmHg 85%
    21:00 +26°C° 0,5 mm 3 mps 719 mmHg 85%
    22:00 +26°C° 0,5 mm 3 mps 720 mmHg 86%
    23:00 +26°C° 0 mm 3 mps 719 mmHg 87%

    24 Enero, Miércoles

    Tiempo Temperatura Precipitaciones Viento Presión Humedad
    00:00 +26°C° 0 mm 3 mps 719 mmHg 88%
    01:00 +26°C° 0 mm 3 mps 718 mmHg 88%
    02:00 +25°C° 0,1 mm 3 mps 718 mmHg 89%
    03:00 +25°C° 0,1 mm 3 mps 718 mmHg 89%
    04:00 +25°C° 0,1 mm 3 mps 718 mmHg 89%
    05:00 +25°C° 0,1 mm 3 mps 718 mmHg 88%
    06:00 +26°C° 0,1 mm 3 mps 718 mmHg 88%
    07:00 +26°C° 0,1 mm 3 mps 719 mmHg 88%
    08:00 +26°C° 0,2 mm 3 mps 719 mmHg 85%
    09:00 +27°C° 0,2 mm 4 mps 719 mmHg 82%
    10:00 +28°C° 0,2 mm 4 mps 720 mmHg 80%
    11:00 +28°C° 0,5 mm 4 mps 719 mmHg 78%
    12:00 +28°C° 0,5 mm 3 mps 719 mmHg 76%
    13:00 +28°C° 0,5 mm 3 mps 719 mmHg 75%
    14:00 +28°C° 0,5 mm 3 mps 718 mmHg 75%
    15:00 +28°C° 0,5 mm 3 mps 718 mmHg 75%
    16:00 +28°C° 0,5 mm 3 mps 718 mmHg 75%
    17:00 +28°C° 0,3 mm 3 mps 718 mmHg 77%
    18:00 +27°C° 0,3 mm 3 mps 718 mmHg 79%
    19:00 +27°C° 0,3 mm 3 mps 719 mmHg 81%
    20:00 +27°C° 0,1 mm 3 mps 719 mmHg 83%
    21:00 +26°C° 0,1 mm 3 mps 719 mmHg 84%
    22:00 +26°C° 0,1 mm 3 mps 720 mmHg 86%
    23:00 +26°C° 0,1 mm 3 mps 719 mmHg 86%

    25 Enero, Jueves

    Tiempo Temperatura Precipitaciones Viento Presión Humedad
    00:00 +26°C° 0,1 mm 3 mps 719 mmHg 86%
    01:00 +26°C° 0,1 mm 3 mps 719 mmHg 87%
    02:00 +26°C° 0,2 mm 3 mps 719 mmHg 86%
    03:00 +25°C° 0,2 mm 3 mps 719 mmHg 86%
    04:00 +25°C° 0,2 mm 4 mps 719 mmHg 86%
    05:00 +26°C° 0,1 mm 4 mps 719 mmHg 86%
    06:00 +26°C° 0,1 mm 4 mps 719 mmHg 86%
    07:00 +26°C° 0,1 mm 4 mps 720 mmHg 86%
    08:00 +26°C° 0,1 mm 4 mps 720 mmHg 83%
    09:00 +27°C° 0,1 mm 4 mps 720 mmHg 81%
    10:00 +28°C° 0,1 mm 4 mps 720 mmHg 78%
    11:00 +28°C° 0,2 mm 5 mps 720 mmHg 77%
    12:00 +28°C° 0,2 mm 5 mps 720 mmHg 77%
    13:00 +28°C° 0,2 mm 5 mps 719 mmHg 76%
    14:00 +28°C° 0,9 mm 5 mps 719 mmHg 77%
    15:00 +28°C° 0,9 mm 5 mps 719 mmHg 77%
    16:00 +27°C° 0,9 mm 4 mps 719 mmHg 78%
    17:00 +27°C° 1,3 mm 5 mps 719 mmHg 80%
    18:00 +27°C° 1,3 mm 5 mps 720 mmHg 83%
    19:00 +26°C° 1,3 mm 5 mps 720 mmHg 85%
    20:00 +26°C° 0,5 mm 5 mps 720 mmHg 85%
    21:00 +26°C° 0,5 mm 5 mps 720 mmHg 86%
    22:00 +25°C° 0,5 mm 4 mps 721 mmHg 86%
    23:00 +25°C° 0 mm 4 mps 720 mmHg 86%
    Mostrar más